Overview Statistics Trail Chart Weather Telemetry Raw packets
 

This is the latest recevied weather packets stored in our database for station/object SV9TNF-54. If no packets are shown the sender has not sent any weather packets the latest 10 day(s).

<< 105 106 107 108 109 110 111 >>
Time Temp. Humidity Pressure Rain* Wind** Luminosity Snow
1787832693 35.56° C 32% 1014.6 hPa 0 mm 22.35 m/s, 27° - -
1787832393 35.56° C 32% 1014.6 hPa 0 mm 22.35 m/s, 27° - -
1787832093 35.56° C 32% 1014.6 hPa 0 mm 22.35 m/s, 27° - -
1787831792 35.56° C 31% 1014.6 hPa 0 mm 24.14 m/s, 22° - -
1787831492 35.56° C 31% 1014.6 hPa 0 mm 24.14 m/s, 22° - -
1787831192 35.56° C 31% 1014.6 hPa 0 mm 24.14 m/s, 22° - -
1787830892 35.56° C 31% 1014.6 hPa 0 mm 24.14 m/s, 22° - -
1787830592 35.56° C 31% 1014.6 hPa 0 mm 24.14 m/s, 22° - -
1787830291 35.56° C 31% 1014.6 hPa 0 mm 24.14 m/s, 22° - -
1787829992 35.56° C 31% 1014.6 hPa 0 mm 25.48 m/s, 44° - -
1787829692 35.56° C 31% 1014.6 hPa 0 mm 25.48 m/s, 44° - -
1787829391 35.56° C 32% 1014.6 hPa 0 mm 22.35 m/s, 23° - -
1787829091 35.56° C 32% 1014.6 hPa 0 mm 22.35 m/s, 23° - -
1787828791 35.56° C 32% 1014.6 hPa 0 mm 22.35 m/s, 23° - -
1787828492 35.56° C 32% 1014.6 hPa 0 mm 22.35 m/s, 23° - -
1787828191 35.56° C 31% 1014.6 hPa 0 mm 19.22 m/s, 49° - -
1787827891 35.56° C 31% 1014.6 hPa 0 mm 19.22 m/s, 49° - -
1787827591 35.56° C 31% 1014.6 hPa 0 mm 19.22 m/s, 49° - -
1787827291 35.56° C 31% 1014.6 hPa 0 mm 19.22 m/s, 49° - -
1787826991 35.56° C 31% 1014.6 hPa 0 mm 19.22 m/s, 49° - -
1787826690 35.56° C 31% 1014.6 hPa 0 mm 19.22 m/s, 49° - -
1787826391 35.56° C 31% 1014.6 hPa 0 mm 19.22 m/s, 49° - -
1787826090 35.56° C 31% 1014.6 hPa 0 mm 19.22 m/s, 49° - -
1787825790 35.56° C 31% 1014.6 hPa 0 mm 19.22 m/s, 49° - -
1787825491 35.56° C 31% 1014.6 hPa 0 mm 25.48 m/s, 56° - -

* Rain latest hour (hover to see other rain measurements)
** Current wind speed in m/s (hover to see current wind gust speed)